Total_Precipitation_Accumulation
0.00 0.00 0.00 0.00 0.00 0.00 0.01 0.02 0.03 0.03 0.03 0.02 0.02 0.01 0.00 0.00 0.00 0.00 0.00 0.00 0.00 0.00 0.00 0.00 0.00 0.00 0.00 0.00 0.00 0.00 0.00 0.00 0.00 0.00 0.00 0.00 0.00 0.00 0.00 0.00 0.00 0.00 0.00 0.00 0.00 0.00 0.00
0.00 0.00 0.00 0.00 0.00 0.00 0.00 0.00 0.01 0.02 0.02 0.02 0.03 0.03 0.02 0.01 0.00 0.00 0.00 0.00 0.00 0.00 0.00 0.00 0.00 0.00 0.00 0.00 0.00 0.00 0.00 0.00 0.00 0.00 0.00 0.00 0.00 0.00 0.00 0.00 0.00 0.00 0.00 0.00 0.00 0.00 0.00
0.00 0.00 0.00 0.00 0.00 0.00 0.00 0.00 0.00 0.00 0.00 0.00 0.01 0.02 0.02 0.02 0.01 0.00 0.00 0.00 0.00 0.00 0.00 0.00 0.00 0.00 0.00 0.00 0.00 0.00 0.00 0.00 0.00 0.00 0.00 0.00 0.00 0.00 0.00 0.00 0.00 0.00 0.00 0.00 0.00 0.00 0.00
0.00 0.00 0.00 0.00 0.00 0.00 0.00 0.00 0.00 0.00 0.00 0.00 0.00 0.00 0.01 0.01 0.01 0.01 0.00 0.00 0.00 0.00 0.00 0.00 0.00 0.00 0.00 0.00 0.00 0.00 0.00 0.00 0.00 0.00 0.00 0.00 0.00 0.00 0.00 0.00 0.00 0.00 0.00 0.00 0.00 0.00 0.00
0.00 0.00 0.00 0.00 0.00 0.00 0.00 0.00 0.00 0.00 0.00 0.00 0.00 0.00 0.00 0.00 0.01 0.01 0.00 0.00 0.00 0.00 0.00 0.00 0.00 0.00 0.00 0.00 0.00 0.00 0.00 0.00 0.00 0.00 0.00 0.00 0.00 0.00 0.00 0.00 0.00 0.00 0.00 0.00 0.00 0.00 0.00
0.00 0.00 0.00 0.00 0.00 0.00 0.00 0.00 0.00 0.00 0.00 0.00 0.00 0.00 0.00 0.00 0.00 0.01 0.02 0.01 0.00 0.00 0.00 0.00 0.00 0.00 0.00 0.00 0.00 0.00 0.00 0.00 0.00 0.00 0.00 0.00 0.00 0.00 0.00 0.00 0.00 0.00 0.00 0.00 0.00 0.00 0.00
0.01 0.01 0.01 0.01 0.01 0.00 0.00 0.00 0.00 0.00 0.00 0.00 0.00 0.00 0.00 0.00 0.00 0.01 0.02 0.01 0.00 0.00 0.00 0.00 0.00 0.00 0.00 0.00 0.00 0.00 0.00 0.00 0.00 0.00 0.00 0.00 0.00 0.00 0.00 0.00 0.00 0.00 0.00 0.00 0.00 0.00 0.00
0.01 0.02 0.02 0.01 0.01 0.00 0.00 0.00 0.00 0.00 0.00 0.00 0.00 0.00 0.00 0.00 0.00 0.02 0.01 0.00 0.00 0.00 0.00 0.00 0.00 0.00 0.00 0.00 0.00 0.00 0.00 0.00 0.00 0.00 0.00 0.00 0.00 0.00 0.00 0.00 0.00 0.00 0.00 0.00 0.00 0.00 0.00
0.01 0.01 0.01 0.02 0.03 0.02 0.01 0.01 0.00 0.00 0.00 0.00 0.00 0.00 0.00 0.00 0.01 0.01 0.00 0.00 0.00 0.00 0.00 0.00 0.00 0.00 0.00 0.00 0.00 0.00 0.00 0.00 0.00 0.00 0.00 0.00 0.00 0.00 0.00 0.00 0.00 0.00 0.00 0.00 0.00 0.00 0.00
0.02 0.02 0.01 0.01 0.01 0.02 0.03 0.04 0.03 0.01 0.00 0.00 0.00 0.00 0.00 0.00 0.00 0.00 0.00 0.00 0.00 0.00 0.01 0.00 0.00 0.00 0.00 0.00 0.00 0.00 0.00 0.00 0.00 0.00 0.00 0.00 0.00 0.00 0.00 0.00 0.00 0.00 0.00 0.00 0.00 0.00 0.00
0.04 0.04 0.02 0.01 0.01 0.01 0.01 0.01 0.02 0.02 0.01 0.00 0.00 0.00 0.00 0.00 0.00 0.00 0.00 0.00 0.00 0.00 0.00 0.00 0.00 0.00 0.00 0.00 0.00 0.00 0.00 0.00 0.00 0.00 0.00 0.00 0.00 0.00 0.00 0.00 0.00 0.00 0.00 0.00 0.00 0.00 0.00
0.04 0.05 0.05 0.04 0.03 0.01 0.00 0.00 0.00 0.01 0.00 0.00 0.00 0.00 0.03 0.00 0.00 0.00 0.00 0.00 0.01 0.01 0.00 0.00 0.00 0.00 0.00 0.00 0.00 0.00 0.00 0.00 0.00 0.00 0.00 0.00 0.00 0.00 0.00 0.00 0.00 0.00 0.00 0.00 0.00 0.00 0.00
0.06 0.06 0.06 0.06 0.06 0.04 0.03 0.02 0.01 0.00 0.00 0.00 0.00 0.00 0.04 0.00 0.00 0.00 0.00 0.03 0.06 0.04 0.00 0.00 0.00 0.00 0.00 0.00 0.00 0.00 0.00 0.00 0.00 0.00 0.00 0.00 0.00 0.00 0.00 0.00 0.00 0.00 0.00 0.00 0.00 0.00 0.00
0.06 0.04 0.04 0.05 0.04 0.04 0.04 0.03 0.02 0.01 0.01 0.01 0.01 0.01 0.02 0.01 0.00 0.00 0.02 0.07 0.06 0.01 0.00 0.00 0.00 0.00 0.00 0.00 0.00 0.00 0.00 0.00 0.00 0.00 0.00 0.00 0.00 0.00 0.00 0.00 0.00 0.00 0.00 0.00 0.00 0.00 0.00
0.08 0.06 0.05 0.04 0.04 0.04 0.05 0.03 0.02 0.01 0.02 0.03 0.07 0.02 0.01 0.01 0.01 0.01 0.07 0.14 0.03 0.00 0.00 0.00 0.00 0.00 0.00 0.00 0.00 0.00 0.00 0.00 0.00 0.00 0.00 0.00 0.00 0.00 0.00 0.00 0.00 0.00 0.00 0.00 0.00 0.00 0.00
0.15 0.11 0.08 0.06 0.05 0.03 0.05 0.06 0.05 0.04 0.03 0.07 0.02 0.01 0.00 0.00 0.08 0.11 0.16 0.08 0.00 0.00 0.00 0.00 0.00 0.00 0.00 0.00 0.00 0.00 0.01 0.00 0.00 0.00 0.01 0.00 0.00 0.00 0.00 0.00 0.00 0.00 0.00 0.00 0.01 0.02 0.00
0.18 0.19 0.20 0.16 0.08 0.05 0.04 0.04 0.06 0.07 0.09 0.11 0.06 0.05 0.00 0.02 0.18 0.28 0.17 0.04 0.00 0.00 0.00 0.00 0.00 0.01 0.00 0.00 0.00 0.00 0.00 0.00 0.00 0.00 0.02 0.03 0.02 0.00 0.00 0.00 0.00 0.00 0.00 0.00 0.00 0.00 0.00
0.23 0.20 0.20 0.20 0.14 0.08 0.05 0.05 0.06 0.06 0.15 0.17 0.07 0.10 0.01 0.05 0.17 0.20 0.20 0.02 0.00 0.00 0.00 0.00 0.00 0.00 0.00 0.00 0.00 0.00 0.00 0.00 0.00 0.00 0.01 0.03 0.06 0.02 0.00 0.00 0.00 0.00 0.00 0.00 0.00 0.00 0.00
0.09 0.18 0.24 0.28 0.25 0.13 0.07 0.05 0.04 0.06 0.19 0.09 0.16 0.08 0.13 0.24 0.16 0.14 0.06 0.00 0.00 0.00 0.00 0.00 0.00 0.00 0.00 0.01 0.06 0.02 0.02 0.00 0.00 0.00 0.01 0.02 0.12 0.13 0.03 0.01 0.00 0.00 0.00 0.00 0.01 0.02 0.02
0.09 0.09 0.08 0.10 0.15 0.19 0.16 0.09 0.08 0.07 0.16 0.14 0.22 0.19 0.20 0.49 0.15 0.03 0.03 0.02 0.00 0.00 0.00 0.00 0.00 0.01 0.01 0.02 0.05 0.03 0.02 0.02 0.01 0.01 0.01 0.03 0.01 0.01 0.01 0.00 0.00 0.00 0.00 0.01 0.05 0.10 0.03
0.07 0.10 0.11 0.10 0.08 0.09 0.14 0.23 0.17 0.12 0.19 0.32 0.50 0.24 0.06 0.27 0.35 0.16 0.02 0.01 0.00 0.00 0.00 0.00 0.00 0.00 0.00 0.01 0.00 0.01 0.02 0.02 0.01 0.02 0.02 0.02 0.06 0.02 0.01 0.01 0.01 0.01 0.00 0.01 0.03 0.02 0.02
0.10 0.10 0.09 0.10 0.10 0.08 0.08 0.12 0.25 0.30 0.28 0.42 0.34 0.15 0.02 0.07 0.11 0.17 0.23 0.11 0.00 0.00 0.00 0.00 0.00 0.00 0.00 0.00 0.00 0.00 0.02 0.04 0.03 0.03 0.05 0.08 0.09 0.05 0.04 0.01 0.02 0.04 0.01 0.00 0.01 0.00 0.00
0.08 0.10 0.08 0.07 0.07 0.08 0.09 0.10 0.12 0.27 0.70 0.63 0.18 0.04 0.08 0.04 0.08 0.24 0.16 0.12 0.03 0.01 0.01 0.00 0.00 0.01 0.00 0.00 0.01 0.05 0.11 0.09 0.11 0.09 0.06 0.10 0.14 0.14 0.15 0.02 0.16 0.35 0.02 0.00 0.00 0.00 0.01
0.07 0.08 0.08 0.05 0.05 0.04 0.05 0.09 0.11 0.14 0.48 0.58 0.12 0.05 0.14 0.09 0.02 0.08 0.16 0.13 0.07 0.04 0.04 0.01 0.01 0.03 0.01 0.02 0.06 0.08 0.08 0.05 0.05 0.03 0.04 0.05 0.11 0.21 0.20 0.11 0.32 0.09 0.00 0.00 0.00 0.00 0.00
0.12 0.13 0.12 0.07 0.05 0.05 0.06 0.06 0.07 0.11 0.23 0.40 0.16 0.12 0.07 0.08 0.01 0.00 0.04 0.11 0.13 0.10 0.10 0.09 0.03 0.04 0.07 0.14 0.18 0.12 0.07 0.07 0.03 0.01 0.00 0.01 0.04 0.18 0.21 0.19 0.07 0.01 0.00 0.00 0.00 0.00 0.00
0.10 0.10 0.12 0.12 0.09 0.07 0.04 0.04 0.05 0.06 0.13 0.32 0.14 0.06 0.11 0.16 0.05 0.00 0.01 0.02 0.06 0.10 0.12 0.07 0.03 0.06 0.13 0.21 0.27 0.19 0.08 0.04 0.03 0.01 0.00 0.00 0.03 0.11 0.15 0.14 0.05 0.00 0.00 0.00 0.00 0.00 0.00
0.07 0.08 0.09 0.10 0.12 0.13 0.11 0.07 0.06 0.06 0.09 0.24 0.20 0.10 0.14 0.29 0.04 0.00 0.01 0.01 0.01 0.04 0.05 0.04 0.07 0.14 0.21 0.28 0.34 0.14 0.03 0.02 0.01 0.01 0.03 0.04 0.07 0.10 0.07 0.04 0.00 0.00 0.00 0.00 0.00 0.00 0.00
0.07 0.08 0.09 0.12 0.14 0.15 0.17 0.15 0.14 0.15 0.18 0.36 0.24 0.12 0.18 0.32 0.06 0.00 0.00 0.01 0.06 0.02 0.01 0.01 0.06 0.11 0.28 0.31 0.29 0.25 0.09 0.01 0.01 0.00 0.01 0.04 0.08 0.08 0.08 0.09 0.02 0.00 0.00 0.00 0.00 0.00 0.00
0.08 0.08 0.08 0.08 0.10 0.11 0.14 0.20 0.23 0.20 0.22 0.39 0.57 0.29 0.10 0.27 0.18 0.01 0.00 0.00 0.00 0.03 0.07 0.04 0.02 0.01 0.05 0.19 0.17 0.10 0.14 0.13 0.05 0.03 0.02 0.02 0.02 0.02 0.04 0.02 0.00 0.00 0.01 0.00 0.00 0.00 0.00